Flag for Sweden Weather past 2 weeks in Malmö, Sweden

Now
61 °F

Scattered clouds.


Feels Like: 61 °F
Forecast: 55 / 67 °F
Wind: 18 mph from Southwest

Location: Malmo / Sturup

Current Time: Jul 29, 2015 at 3:56:12 PM

Latest Report: Jul 29, 2015 at 3:20 PM


Visibility: N/A

Pressure: 29.53 "Hg

Humidity: 77%

Dew point: 54 °F

Location of MalmöLocation

Historic Weather in Malmö — Graph

°F

Malmö temperature yesterday

Maximum temperature yesterday: 66 °F (at 4:20 PM)
Minimum temperature yesterday: 57 °F (at 12:50 AM)
Average temperature yesterday: 61 °F

Past Weeks' High & Low Weather Summary

 TemperatureHumidityPressure
High73 °F (Jul 21, 3:20 PM)100% (Jul 17, 3:20 AM)30.04 "Hg (Jul 17, 3:20 AM)
Low45 °F (Jul 17, 4:20 AM)30% (Jul 17, 12:50 PM)29.42 "Hg (Jul 25, 7:20 PM)
Average60 °F76%29.80 "Hg
* Reported Jul 14 2:20 PM — Jul 29 2:20 PM, Malmö, Weather by CustomWeather, © 2015

Note: Actual official high and low records may vary slightly from our data, if they occured in-between our weather recording intervals... More about our weather records

Advertising

Malmö weather history for previous 24 hours

 ConditionsComfort  
Time TempWeatherWind HumidityBarometerVisibility
2:20 PM
Wed, Jul 29
57 °FSprinkles. Broken clouds.15 mph82%29.53 "HgN/A
1:50 PM61 °FSprinkles. Broken clouds.13 mph83%29.53 "HgN/A
1:20 PM61 °FBroken clouds.16 mph72%29.53 "HgN/A
12:50 PM61 °FBroken clouds.17 mph72%29.53 "HgN/A
12:20 PM59 °FOvercast.15 mph77%29.53 "HgN/A
11:50 AM61 °FPartly sunny.18 mph83%29.53 "HgN/A
11:20 AM61 °FBroken clouds.13 mph88%29.53 "HgN/A
10:50 AM59 °FBroken clouds.13 mph88%29.53 "HgN/A
10:20 AM59 °FLight rain. Broken clouds.14 mph88%29.53 "HgN/A
9:20 AM59 °FLight rain. Scattered clouds.12 mph88%29.53 "HgN/A
8:50 AM59 °FRain showers. Scattered clouds.12 mph94%29.50 "HgN/A
8:20 AM59 °FSprinkles. Scattered clouds.12 mph88%29.50 "HgN/A
7:50 AM59 °FScattered clouds.9 mph88%29.50 "HgN/A
7:20 AM59 °FRain showers. Broken clouds.10 mph88%29.50 "HgN/A
6:50 AM59 °FPartly sunny.10 mph88%29.50 "HgN/A
6:20 AM57 °FBroken clouds.14 mph94%29.50 "HgN/A
5:50 AM57 °FRain. Partly cloudy.13 mph100%29.50 "HgN/A
5:20 AM57 °FPartly cloudy.10 mph100%29.50 "HgN/A
4:50 AM57 °FPassing clouds.9 mph94%29.50 "HgN/A
4:20 AM57 °FPassing clouds.12 mph94%29.50 "HgN/A
3:50 AM57 °FLight rain. Passing clouds.13 mph94%29.47 "Hg6 mi
3:20 AM57 °FClear.13 mph94%29.50 "Hg10 mi
2:50 AM59 °FPartly cloudy.14 mph88%29.50 "HgN/A
2:20 AM59 °FPartly cloudy.13 mph94%29.50 "HgN/A
1:50 AM59 °FPartly cloudy.12 mph88%29.50 "HgN/A
1:20 AM59 °FPartly cloudy.12 mph88%29.50 "HgN/A
12:50 AM59 °FPartly cloudy.13 mph94%29.50 "HgN/A
11:20 PM
Tue, Jul 28
59 °FPassing clouds.9 mph88%29.50 "HgN/A
10:50 PM59 °FPassing clouds.10 mph82%29.50 "HgN/A
10:20 PM61 °FPassing clouds.13 mph77%29.50 "HgN/A
9:50 PM61 °FScattered clouds.12 mph77%29.50 "HgN/A
9:20 PM63 °FSunny.13 mph73%29.47 "Hg10 mi
8:50 PM63 °FSunny.14 mph73%29.47 "Hg10 mi
8:20 PM63 °FSunny.15 mph73%29.47 "Hg10 mi
7:50 PM63 °FBroken clouds.16 mph73%29.47 "HgN/A
7:20 PM64 °FBroken clouds.17 mph73%29.47 "HgN/A
6:50 PM64 °FBroken clouds.18 mph73%29.45 "HgN/A
6:20 PM64 °FPartly sunny.17 mph73%29.45 "HgN/A
5:50 PM64 °FBroken clouds.20 mph78%29.45 "HgN/A
5:20 PM64 °FRain showers. Partly sunny.18 mph78%29.45 "HgN/A
4:50 PM64 °FPartly sunny.17 mph78%29.45 "HgN/A
4:20 PM66 °FPartly sunny.20 mph73%29.45 "HgN/A
3:50 PM64 °FRain showers. Partly sunny.20 mph78%29.45 "HgN/A
3:20 PM64 °FPartly sunny.16 mph78%29.45 "HgN/A
Weather by CustomWeather, © 2015

See weather overviewHow to use our weather pages